sat.trackr.live / text

‹ back to catalog

ECHOSTAR 10

NORAD 28935 · 2006-003A

PAYLOAD ACTIVE UNKNOWN

§ Identity

Operator
Country
US
Launch date
2006-02-15
Launch site
SEAL
Launch vehicle
Mass (kg)
RCS (m²)
22.71

Purposes: comms

External: N2YO · Heavens-Above · Gunter

§ Orbital elements

Epoch: 2026-09-19T21:34:47.303904Z

Period
1,436.10 min
Inclination
0.0397°
Eccentricity
0.0002667
Mean motion
1.00271241 rev/d
Perigee alt
35,775.5 km
Apogee alt
35,798.0 km
Semi-major
42,164.9 km
B*
0.0000e+0
RAAN
342.3769°
Arg perigee
145.4432°
Mean anomaly
84.5084°
Rev number
7,541

§ Raw data

ECHOSTAR 101 28935U 06003A   26262.89915861 -.00000060  00000+0  00000+0 0  99962 28935   0.0397 342.3769 0002667 145.4432  84.5084  1.00271241 75410

JSON: /api/v1/satellites/28935 · /tle

For live sub-satellite position, see the globe view (requires WebGL).

§ Visibility from observer

Set your observer location to see the next 7 days of passes ≥ 10°. The values pass through the URL so the page stays shareable.

No JS? Fill the form by hand. The geolocation button needs JavaScript.